Location: Buckland
(65.9785°N, 161.1281°W)
Time: 21:58:38
(UTC+00:00)

PRISM - Pass Details

Date: 26 January 2021
Orbit: 565 x 584 km, 98.2° (Epoch: 06 March)

Event Time Altitude Azimuth Distance (km) Brightness Sun altitude
Rises 16:35:11 0° 25° (NNE) 2,790 ? -19.1°
Reaches altitude 10° 16:37:49 10° 8° (N) 1,892 ? -18.8°
Enters shadow 16:39:54 18° 338° (NNW) 1,450 ? -18.6°
